Flag for Australia Weather past 2 weeks in Alice Springs, Northern Territory, Australia

Now
93 °F

Sunny.


Feels Like: 90 °F
Forecast: 74 / 96 °F
Wind: 10 mph from East

Location: Alice Springs Aerodrome

Current Time: Dec 19, 2014 at 5:46:49 PM

Latest Report: Dec 19, 2014 at 5:30 PM


Visibility: N/A

Pressure: 29.92 "Hg

Humidity: 21%

Dew point: 48 °F

Location of Alice SpringsLocation

Historic Weather in Alice Springs — Graph

°F

Alice Springs temperature yesterday

Maximum temperature yesterday: 90 °F (at 3:30 PM)
Minimum temperature yesterday: 68 °F (at 7:00 AM)
Average temperature yesterday: 80 °F

Past Weeks' High & Low Weather Summary

 TemperatureHumidityPressure
High109 °F (Dec 15, 4:00 PM)100% (Dec 18, 7:00 AM)30.07 "Hg (Dec 18, 7:00 AM)
Low64 °F (Dec 14, 5:30 AM)6% (Dec 14, 3:00 PM)29.56 "Hg (Dec 7, 4:30 PM)
Average88 °F36%29.82 "Hg
* Reported Dec 4 4:30 PM — Dec 19 4:30 PM, Alice Springs, Weather by CustomWeather, © 2014

Note: Actual official high and low records may vary slightly from our data, if they occured in-between our weather recording intervals... More about our weather records

Advertising

Alice Springs weather history for previous 24 hours

 ConditionsComfort  
Time TempWeatherWind HumidityBarometerVisibility
4:30 PM
Dec 19
93 °FPassing clouds.12 mph21%29.92 "HgN/A
3:30 PM93 °FPassing clouds.8 mph21%29.95 "HgN/A
2:30 PM93 °FSunny.12 mph23%29.98 "Hg10 mi
2:00 PM91 °FPassing clouds.9 mph24%29.98 "HgN/A
1:30 PM93 °FSunny.13 mph21%30.01 "Hg10 mi
1:00 PM91 °FSunny.15 mph24%30.01 "Hg10 mi
12:30 PM91 °FPassing clouds.10 mph26%30.01 "HgN/A
12:00 PM90 °FPassing clouds.12 mph31%30.04 "HgN/A
11:30 AM90 °FScattered clouds.13 mph31%30.04 "HgN/A
11:00 AM88 °FSunny.14 mph35%30.04 "Hg10 mi
10:30 AM88 °FPassing clouds.12 mph35%30.04 "HgN/A
10:00 AM86 °FSunny.15 mph38%30.07 "Hg10 mi
9:30 AM84 °FSunny.9 mph43%30.07 "Hg10 mi
9:00 AM84 °FPassing clouds.8 mph45%30.07 "HgN/A
8:30 AM81 °FSunny.9 mph54%30.07 "Hg10 mi
8:00 AM81 °FSunny.8 mph58%30.04 "Hg10 mi
7:30 AM79 °FSunny.5 mph65%30.04 "Hg10 mi
7:00 AM75 °FSunny.No wind78%30.04 "Hg10 mi
6:30 AM72 °FSunny.No wind88%30.01 "Hg10 mi
5:30 AM70 °FSunny.No wind94%29.98 "HgN/A
4:30 AM70 °FClear.No wind94%29.98 "HgN/A
3:30 AM72 °FClear.1 mph88%29.95 "HgN/A
2:30 AM73 °FClear.5 mph83%29.95 "HgN/A
2:00 AM73 °FClear.5 mph83%29.95 "HgN/A
1:30 AM75 °FClear.5 mph78%29.95 "HgN/A
12:30 AM75 °FClear.5 mph78%29.95 "HgN/A
12:00 AM77 °FClear.6 mph69%29.98 "HgN/A
11:30 PM
Dec 18
77 °FClear.8 mph69%29.98 "HgN/A
11:00 PM79 °FClear.10 mph65%29.95 "HgN/A
10:30 PM79 °FClear.10 mph61%29.95 "HgN/A
10:00 PM81 °FClear.10 mph58%29.95 "HgN/A
9:30 PM82 °FClear.9 mph55%29.95 "HgN/A
9:00 PM82 °FClear.8 mph55%29.92 "HgN/A
8:30 PM82 °FClear.8 mph55%29.92 "HgN/A
7:30 PM86 °FClear.9 mph43%29.92 "HgN/A
7:00 PM88 °FPassing clouds.10 mph40%29.89 "HgN/A
6:30 PM88 °FMostly cloudy.13 mph38%29.89 "HgN/A
6:00 PM90 °FOvercast.12 mph38%29.89 "HgN/A
5:30 PM88 °FMostly cloudy.13 mph40%29.86 "HgN/A
Weather by CustomWeather, © 2014

See weather overviewHow to use our weather pages